Overview Statistics Trail Chart Weather Telemetry Raw packets
 

This is the latest recevied weather packets stored in our database for station/object N9BLE. If no packets are shown the sender has not sent any weather packets the latest 10 day(s).

<< 67 68 69 70 71 72 73 >>
Time Temp. Humidity Pressure Rain* Wind** Luminosity Snow
1777570466 13.89° C 46% 1019.1 hPa 0 mm - 318 W/m² -
1777570161 13.33° C 43% 1019.3 hPa 0 mm - 516 W/m² -
1777569858 13.89° C 39% 1019.1 hPa 0 mm - 275 W/m² -
1777569554 13.33° C 45% 1019.2 hPa 0 mm - 290 W/m² -
1777569250 13.33° C 40% 1019.4 hPa 0 mm - 263 W/m² -
1777568947 13.33° C 41% 1019.4 hPa 0 mm - 255 W/m² -
1777568643 13.33° C 42% 1019.3 hPa 0 mm - 234 W/m² -
1777568341 13.33° C 42% 1019.6 hPa 0 mm - 223 W/m² -
1777568037 13.89° C 43% 1019.7 hPa 0 mm - 278 W/m² -
1777567734 13.33° C 48% 1019.7 hPa 0 mm - 277 W/m² -
1777567430 13.89° C 42% 1019.6 hPa 0 mm - 241 W/m² -
1777567129 12.78° C 46% 1019.7 hPa 0 mm - 276 W/m² -
1777566826 12.78° C 43% 1019.7 hPa 0 mm - 183 W/m² -
1777566524 12.22° C 48% 1019.5 hPa 0 mm - 123 W/m² -
1777566221 12.22° C 44% 1019.8 hPa 0 mm - 102 W/m² -
1777565918 12.78° C 49% 1020 hPa 0 mm - 116 W/m² -
1777565613 12.22° C 53% 1019.8 hPa 0 mm - 103 W/m² -
1777565310 12.22° C 50% 1020.2 hPa 0 mm - 137 W/m² -
1777565006 11.67° C 52% 1020 hPa 0 mm - 324 W/m² -
1777564702 11.11° C 51% 1020.2 hPa 0 mm - 186 W/m² -
1777564397 11.11° C 51% 1020.2 hPa 0 mm - 198 W/m² -
1777564094 10.56° C 58% 1020.4 hPa 0 mm - 184 W/m² -
1777563798 10.56° C 52% 1020.4 hPa 0 mm - 74 W/m² -
1777563486 10.56° C 50% 1020.4 hPa 0 mm - 53 W/m² -
1777563185 11.11° C 49% 1020.4 hPa 0 mm - 57 W/m² -

* Rain latest hour (hover to see other rain measurements)
** Current wind speed in m/s (hover to see current wind gust speed)